[Date Prev][Date Next][Thread Prev][Thread Next] - [Date Index][Thread Index][Author Index]

2 Line ISS Keps 12-10



ISS 
1 25544U 98067A   04345.03948036  .00017846  00000-0  14270-3 0  3301
2 25544  51.6377 148.1792 0004338  95.7541   4.5456 15.71172384345940
----
Via the sarex mailing list at AMSAT.ORG courtesy of AMSAT-NA.
To unsubscribe, send "unsubscribe sarex" to Majordomo@amsat.org



AMSAT Top AMSAT Home